Hopewell, New Jersey, United States (08525)
Lat: 40.39N, Lon: 74.76W
Wx Zone: NJZ015
Local Info
Past Weather Observations for Wednesday, February 10, 2016

NOTE: This archive is for the closest National Weather Service station to Hopewell. Information may differ from the station used for current weather conditions.

Click here for Long-term Archive

Time Weather Temperature Dewpoint Humidity Pressure Winds Precip Visibility
23:53
Overcast
27°F / -3°C 16°F / -9°C 64% 29.77 in
(1008 mb)
Variable 3.5 mph
(Variable 6 kph)
- 10SM
22:53
Overcast
28°F / -2°C 14°F / -10°C 55% 29.77 in
(1008 mb)
WNW 8.1 mph
(WNW 13 kph)
- 10SM
21:53
Overcast
30°F / -1°C 16°F / -9°C 55% 29.77 in
(1008 mb)
Variable 5.8 mph
(Variable 9 kph)
- 10SM
20:53
Mostly Cloudy
30°F / -1°C 16°F / -9°C 55% 29.74 in
(1007 mb)
Calm - 10SM
19:53
Partly Cloudy
30°F / -1°C 16°F / -9°C 55% 29.74 in
(1007 mb)
W 4.6 mph
(W 7 kph)
- 10SM
18:53
Clear
30°F / -1°C 16°F / -9°C 55% 29.74 in
(1007 mb)
Variable 3.5 mph
(Variable 6 kph)
- 10SM
16:53
Partly Cloudy
34°F / 1°C 16°F / -9°C 48% 29.68 in
(1005 mb)
SSW 9.2 mph
(SSW 15 kph)
- 10SM
15:53
Overcast
36°F / 2°C 19°F / -7°C 52% 29.68 in
(1005 mb)
Calm - 10SM
14:53
Overcast
36°F / 2°C 19°F / -7°C 52% 29.65 in
(1004 mb)
WNW 10.4 mph
(WNW 17 kph)
- 10SM
13:53
Mostly Cloudy
36°F / 2°C 19°F / -7°C 52% 29.62 in
(1003 mb)
SSW 9.2 mph
(SSW 15 kph)
- 10SM
12:53
Overcast
36°F / 2°C 21°F / -6°C 56% 29.62 in
(1003 mb)
W 8.1 mph
(W 13 kph)
- 10SM
11:53
Partly Cloudy
37°F / 3°C 23°F / -5°C 56% 29.62 in
(1003 mb)
W 8.1 mph
(W 13 kph)
- 10SM
10:53
Mostly Cloudy
34°F / 1°C 25°F / -4°C 70% 29.65 in
(1004 mb)
Variable 5.8 mph
(Variable 9 kph)
0.05 in
(1.27 mm)
10SM
09:53
Overcast
34°F / 1°C 25°F / -4°C 70% 29.65 in
(1004 mb)
W 9.2 mph
(W 15 kph)
0.00 in
(0.00 mm)
9SM
09:14
Overcast
Light Snow
32°F / 0°C 27°F / -3°C 80% 29.65 in
(1004 mb)
Variable 4.6 mph
(Variable 7 kph)
0.00 in
(0.00 mm)
3SM
08:53
Overcast
Light Snow
34°F / 1°C 28°F / -2°C 81% 29.65 in
(1004 mb)
Variable 6.9 mph
(Variable 11 kph)
0.00 in
(0.00 mm)
2 1/2SM
07:53
Overcast
Fog And Mist
32°F / 0°C 28°F / -2°C 87% 29.62 in
(1003 mb)
W 4.6 mph
(W 7 kph)
0.00 in
(0.00 mm)
4SM
06:53
Overcast
Fog And Mist
32°F / 0°C 28°F / -2°C 87% 29.59 in
(1002 mb)
Variable 3.5 mph
(Variable 6 kph)
0.00 in
(0.00 mm)
4SM
06:35
Overcast
Fog And Mist
30°F / -1°C 28°F / -2°C 93% 29.59 in
(1002 mb)
Calm 0.00 in
(0.00 mm)
3SM
06:05
Overcast
Light Snow
30°F / -1°C 28°F / -2°C 93% 29.59 in
(1002 mb)
Calm 0.00 in
(0.00 mm)
2SM
05:53
Overcast
Light Snow
30°F / -1°C 28°F / -2°C 93% 29.59 in
(1002 mb)
Calm 0.00 in
(0.00 mm)
2 1/2SM
05:35
Overcast
Fog And Mist
30°F / -1°C 28°F / -2°C 93% 29.59 in
(1002 mb)
Calm - 3SM
04:53
Overcast
Fog And Mist
30°F / -1°C 28°F / -2°C 93% 29.59 in
(1002 mb)
Calm - 4SM
04:20
Overcast
Fog And Mist
30°F / -1°C 28°F / -2°C 93% 29.59 in
(1002 mb)
Calm - 3SM
03:53
Overcast
Fog And Mist
30°F / -1°C 28°F / -2°C 93% 29.56 in
(1001 mb)
Calm - 2SM
03:27
Overcast
Fog And Mist
30°F / -1°C 28°F / -2°C 93% 29.56 in
(1001 mb)
Calm - 2 1/2SM
03:14
Overcast
Fog And Mist
30°F / -1°C 28°F / -2°C 93% 29.56 in
(1001 mb)
Calm - 3SM
02:53
Overcast
Fog And Mist
30°F / -1°C 28°F / -2°C 93% 29.56 in
(1001 mb)
Calm - 2 1/2SM
02:31
Overcast
Fog And Mist
30°F / -1°C 28°F / -2°C 93% 29.59 in
(1002 mb)
Calm - 2 1/2SM
02:29
Overcast
Fog And Mist
30°F / -1°C 28°F / -2°C 93% 29.59 in
(1002 mb)
Calm - 3SM
02:21
Overcast
Fog And Mist
30°F / -1°C 28°F / -2°C 93% 29.59 in
(1002 mb)
Calm - 2 1/2SM
02:13
Overcast
Fog And Mist
30°F / -1°C 28°F / -2°C 93% 29.59 in
(1002 mb)
Calm - 2 1/2SM
01:53
Overcast
Fog And Mist
30°F / -1°C 28°F / -2°C 93% 29.59 in
(1002 mb)
Calm - 2 1/2SM
01:26
Overcast
Fog And Mist
30°F / -1°C 28°F / -2°C 93% 29.59 in
(1002 mb)
Calm - 2 1/2SM
01:19
Overcast
Fog And Mist
30°F / -1°C 28°F / -2°C 93% 29.59 in
(1002 mb)
Calm - 2SM
00:53
Overcast
Fog And Mist
30°F / -1°C 28°F / -2°C 93% 29.59 in
(1002 mb)
Calm 0.00 in
(0.00 mm)
2SM
00:34
Overcast
Light Snow
30°F / -1°C 28°F / -2°C 93% 29.59 in
(1002 mb)
Calm 0.00 in
(0.00 mm)
1 1/2SM
00:08
Overcast
Light Snow
30°F / -1°C 28°F / -2°C 93% 29.59 in
(1002 mb)
Calm 0.00 in
(0.00 mm)
1 1/4SM
Time Weather Temperature Dewpoint Humidity Pressure Winds Precip Visibility


Weather for websites

WeatherForYou.com, LLC is not responsible for any damages or problems caused by this service. Current weather conditions are obtained from the closest station including government and personal stations which may have varying degrees of accuracy. Weather forecasts are derived from the NOAA NDFD. Like all things, this site belongs to Jesus Christ... He just trusts us to maintain it. If you have any questions or comments email webmaster@weatherforyou.com

Copyright © 2016, WeatherForYou.com LLC. All rights reserved.